Regional Weather Roundup
Issued by NWS Sioux Falls, SD

Home | Current Version | Previous Version | Text Only | Print | Product List | Glossary On
Versions: 1 2 3 4 5 6 7 8 9 10 11 12 13 14 15 16 17 18 19 20 21 22 23 24 25 26 27 28 29 30 31 32 33 34 35 36 37 38 39 40 41 42 43 44 45 46 47 48 49 50
000
ASUS43 KFSD 031810
RWRFSD

WEATHER ROUNDUP FOR SE SOUTH DAKOTA/SW MINNESOTA/NW IOWA
NATIONAL WEATHER SERVICE SIOUX FALLS SD
1200 PM CST SAT DEC 03 2016

NOTE: "FAIR" INDICATES FEW OR NO CLOUDS BELOW 12,000 FEET WITH NO
SIGNIFICANT WEATHER AND OR OBSTRUCTIONS TO VISIBILITY.


SDZ038>040-050-052>070-031900-
SOUTHEAST SOUTH DAKOTA

CITY           SKY/WX    TMP DP  RH WIND       PRES   REMARKS
BROOKINGS      MOSUNNY   33  29  85 S17       30.12F WCI  22
CHAMBERLAIN    CLOUDY    36  35  96 SE14      30.01F
6HR MIN TEMP:  24; 6HR MAX TEMP:  36;

HURON          MIX PCPN  32  30  92 S17       30.09F WCI  21
6HR MIN TEMP:  24; 6HR MAX TEMP:  32; 6HR PCP: TRACE;

MADISON        FAIR      32  32 100 S16       30.13F WCI  21
MITCHELL       FLURRIES  33  31  92 S12       30.13F WCI  24
6HR MIN TEMP:  26; 6HR MAX TEMP:  33; 6HR PCP: TRACE;

SIOUX FALLS    CLOUDY    35  30  82 S12       30.17F WCI  27
6HR MIN TEMP:  27; 6HR MAX TEMP:  35;

YANKTON        PTSUNNY   36  30  80 S7        30.18F
$$

MNZ071-072-080-081-089-090-097-098-031900-
SOUTHWEST MINNESOTA

CITY           SKY/WX    TMP DP  RH WIND       PRES   REMARKS
FAIRMONT       MOSUNNY   34  23  64 SE9       30.24F WCI  27
JACKSON        SUNNY     32  27  80 SE9       30.21F WCI  24
LUVERNE        CLOUDY    34  30  86 S14       30.19F WCI  24
MARSHALL       SUNNY     35  26  69 S14       30.18F WCI  26
6HR MIN TEMP:  24; 6HR MAX TEMP:  35;

MONTEVIDEO     SUNNY     34  27  75 S12       30.20  WCI  25
PIPESTONE      MOSUNNY   34  30  86 S14       30.14F WCI  24
REDWOOD FALLS  SUNNY     32  22  66 SE13      30.21F WCI  22
TRACY          SUNNY     34  29  82 S13       30.19F WCI  25
WINDOM         SUNNY     34  27  75 CALM      30.20F
WORTHINGTON    PTSUNNY   33  29  85 S17       30.20F WCI  22
$$

IAZ001>003-012>014-020>022-031-032-NEZ013-014-SDZ071-031900-
NORTHWEST IOWA

CITY           SKY/WX    TMP DP  RH WIND       PRES   REMARKS
CHEROKEE       CLOUDY    37  32  84 S12       30.24F
DENISON        CLOUDY    36  30  80 S12       30.24F
ESTHERVILLE    CLOUDY    32  28  85 S12       30.23F WCI  23
LE MARS        PTSUNNY   36  32  87 S13       30.24S
ORANGE CITY    CLOUDY    36  32  87 S13       30.21S
SHELDON        CLOUDY    36  34  93 MISG      30.20S
SIOUX CITY     CLOUDY    35  31  85 S7        30.25F WCI  29
6HR MIN TEMP:  23; 6HR MAX TEMP:  35;

SPENCER        CLOUDY    36  31  82 S17       30.23F
6HR MIN TEMP:  27; 6HR MAX TEMP:  36;

STORM LAKE     MOSUNNY   36  32  87 S15       30.24S
$$

ABBREVIATIONS USED IN REMARKS
   TC - TEMPERATURE IN CELSIUS
  WCI - WIND CHILL INDEX
   HX - HEAT INDEX
  VSB - VISIBILITY




USA.gov is the U.S. government's official web portal to all federal, state and local government web resources and services.